Regional Weather Roundup
Issued by NWS

Home | Current Version | Previous Version | Graphics & Text | Print | Product List | Glossary On
Versions: 1 2 3 4 5 6 7 8 9 10 11 12 13 14 15 16 17 18 19 20 21 22 23 24 25 26 27 28 29 30 31 32 33 34 35 36 37 38 39 40 41 42 43 44 45 46 47 48 49 50
000
ASUS43 KBIS 261610
RWRND

NORTH DAKOTA REGIONAL WEATHER ROUNDUP
NATIONAL WEATHER SERVICE BISMARCK ND
1100 AM CDT MON SEP 26 2016

NOTE: "FAIR" INDICATES FEW OR NO CLOUDS BELOW 12,000 FEET WITH NO
SIGNIFICANT WEATHER AND/OR OBSTRUCTIONS TO VISIBILITY.


NDZ001>003-009>011-017-261700-
NORTHWEST NORTH DAKOTA

CITY           SKY/WX    TMP DP  RH WIND       PRES   REMARKS
WILLISTON      SUNNY     52  40  63 S3        30.22S
MINOT          SUNNY     58  36  43 W15       30.13S
MINOT AFB      SUNNY     56  36  46 NW16      30.12S
$$

NDZ018>021-031>035-040>046-261700-
SOUTHWEST NORTH DAKOTA

CITY           SKY/WX    TMP DP  RH WIND       PRES   REMARKS
BISMARCK       SUNNY     60  38  43 NW10      30.17S
DICKINSON      SUNNY     56  39  53 NW9       30.21R
GARRISON         N/A     56  37  49 NW16      30.16S
HETTINGER ARPT SUNNY     61  40  45 NW13      30.23S
$$

NDZ004>008-012>016-024-026-027-054-261700-
NORTHEAST NORTH DAKOTA

CITY           SKY/WX    TMP DP  RH WIND       PRES   REMARKS
GRAND FORKS    SUNNY     58  40  51 NW20G30   29.93S
GRND FRKS AFB  SUNNY     57  38  48 NW22G29   29.94F
DEVILS LAKE    SUNNY     54  38  54 W22G29    30.03S
$$

NDZ022-023-025-028>030-036>039-047>053-261700-
SOUTHEAST NORTH DAKOTA

CITY           SKY/WX    TMP DP  RH WIND       PRES   REMARKS
FARGO          SUNNY     60  38  43 W21       29.98F
JAMESTOWN      SUNNY     56  40  55 W18G26    30.07F
$$




USA.gov is the U.S. government's official web portal to all federal, state and local government web resources and services.